Orbital Elements at Epoch 2459200.5 (2020-Dec-17.0) TDB
Reference: JPL 16 (heliocentric ecliptic J2000)
Element | Value | Uncertainty (1-sigma) | Units |
e | .1038660377772188 | 7.8556e-08 | |
a | 3.095517395200504 | 3.9359e-08 | au |
q | 2.773998268490571 | 2.5604e-07 | au |
i | 28.36929535586169 | 8.4823e-06 | deg |
node | 156.43921511417 | 1.1281e-05 | deg |
peri | 23.86315803159398 | 3.1582e-05 | deg |
M | 42.08471135382742 | 2.7066e-05 | deg |
tp | 2458967.947960731357 (2020-Apr-28.44796073) | 0.00014968 | TDB |
period | 1989.290919280542 5.45 | 3.794e-05 1.039e-07 | d yr |
n | .1809690058456606 | 3.4515e-09 | deg/d |
Q | 3.417036521910437 | 4.3447e-08 | au |
|
| | Orbit Determination Parameters
Additional Information
|